Regional Weather Roundup
Issued by NWS

Home | Current Version | Previous Version | Text Only | Print | Product List | Glossary Off
Versions: 1 2 3 4 5 6 7 8 9 10 11 12 13 14 15 16 17 18 19 20 21 22 23 24 25 26 27 28 29 30 31 32 33 34 35 36 37 38 39 40 41 42 43 44 45 46 47 48 49 50

000
ASUS43 KOAX 232310
RWRNE

WEATHER ROUNDUP FOR NEBRASKA
NATIONAL WEATHER SERVICE OMAHA NE
600 PM CDT WED JUL 23 2014

NOTES: SATELLITE DATA IS BEING USED TO AUGMENT CLOUD COVER ABOVE
       12000 FEET.
       "FAIR" INDICATES FEW OR NO CLOUDS BELOW 12,000 FEET WITH NO
       SIGNIFICANT WEATHER AND/OR OBSTRUCTIONS TO VISIBILITY.

  * THESE STATIONS DO NOT REPORT WEATHER SUCH AS RAIN...SNOW OR FOG.

NEZ001>004-019>022-054>056-240000-
NEBRASKA PANHANDLE

CITY           SKY/WX    TMP DP  RH WIND       PRES   REMARKS
SCOTTSBLUFF    SUNNY     93  65  39 S12       30.14F HX  95
ALLIANCE       SUNNY     94  61  33 S15G25    30.15F HX  94
CHADRON        SUNNY     94  63  35 SE14G24   30.08F HX  95
KIMBALL        SUNNY     89  62  40 S17G24    30.21F
SIDNEY         SUNNY     94  59  31 S22       30.18F HX  93
$$

NEZ057>060-069>072-079>082-240000-
SOUTHWEST NEBRASKA

CITY           SKY/WX    TMP DP  RH WIND       PRES   REMARKS
NORTH PLATTE   SUNNY     82  64  54 E16       30.16F
IMPERIAL       SUNNY     94  59  31 S14       30.14F HX  93
LEXINGTON      SUNNY     82  62  50 S10       30.19S HAZE
MCCOOK         SUNNY     85  63  47 E13       30.16F
OGALLALA       SUNNY     84  68  57 E14G21    30.15F
$$

NEZ005>010-023>029-035>040-094-240000-
NORTH CENTRAL NEBRASKA

CITY           SKY/WX    TMP DP  RH WIND       PRES   REMARKS
VALENTINE      SUNNY     87  57  35 SE15      30.17F
AINSWORTH      SUNNY     83  56  38 SE10      30.19S
BROKEN BOW     SUNNY     82  62  50 SE10      30.19F
O`NEILL        SUNNY     82  53  36 E10       30.20F
ORD            SUNNY     82  58  43 E12       30.17F
THEDFORD       SUNNY     85  58  40 SE9       30.19F
$$

NEZ041-046>049-061>064-073>077-083>087-240000-
SOUTH CENTRAL NEBRASKA

CITY           SKY/WX    TMP DP  RH WIND       PRES   REMARKS
GRAND ISLAND   SUNNY     82  59  45 E13       30.18R
AURORA         SUNNY     82  61  48 E9        30.17S
HASTINGS       SUNNY     82  57  42 E10       30.17S
HEBRON         MOSUNNY   84  56  38 E14       30.13F
HOLDREGE       SUNNY     81  62  53 E8        30.19S
KEARNEY *      SUNNY     82  63  51 E10       30.19S
YORK           SUNNY     82  59  44 NE13      30.16F
$$

NEZ011>018-030>034-042>045-240000-
NORTHEAST NEBRASKA

CITY           SKY/WX    TMP DP  RH WIND       PRES   REMARKS
NORFOLK        SUNNY     81  57  43 E8        30.17F
ALBION         SUNNY     82  56  41 E8        30.18F
BLAIR          SUNNY     82  53  37 N6        30.16F
COLUMBUS *     SUNNY     82  59  44 E6        30.17F
FREMONT        SUNNY     84  58  40 NE8       30.16F
TEKAMAH        SUNNY     84  61  45 E8        30.16F
WAYNE          SUNNY     82  59  46 NE8       30.19F
$$

NEZ050>053-065>068-078-088>093-240000-
SOUTHEAST NEBRASKA

CITY           SKY/WX    TMP DP  RH WIND       PRES   REMARKS
LINCOLN        SUNNY     87  58  37 NE12      30.15F
OMAHA EPPLEY   MOSUNNY   84  58  40 NE6       30.15F
BEATRICE       MOSUNNY   83  62  48 E8        30.13F
FALLS CITY     MOSUNNY   85  65  51 NE8       30.11F
NEBRASKA CITY  SUNNY     82  59  45 NE8       30.14F
PLATTSMOUTH    SUNNY     83  56  39 NE5       30.15F
$$

NEZ044-045-051>053-067-240000-
OMAHA AREA

CITY           SKY/WX    TMP DP  RH WIND       PRES   REMARKS
OMAHA EPPLEY   MOSUNNY   84  58  40 NE6       30.15F
BLAIR          SUNNY     82  53  37 N6        30.16F
FREMONT        SUNNY     84  58  40 NE8       30.16F
MILLARD        SUNNY     84  59  43 E5        30.14F
OFFUTT AFB     SUNNY     84  61  45 VRB6      30.14F
PLATTSMOUTH    SUNNY     83  56  39 NE5       30.15F
WAHOO          FAIR      84  59  43 E6        30.15F
$$



USA.gov is the U.S. government's official web portal to all federal, state and local government web resources and services.